Simultaneous Nadir Overpasses (SNOs) Predictions

Prediction of SNOs between NOAA-19 and TERRA Satellite Orbit:

Table of predicted SNOs for the next 14.0 days since TLE Epoch: 1/25/2020
Index Date (NOAA-19) Time (NOAA-19) Lat,Lon (NOAA-19) SZA (NOAA-19 ) Date (TERRA) Time (TERRA) Lat,Lon (TERRA) SZA (TERRA ) Distance(km) Time Diff (sec)
1 01/25/2020 22:39:33 79.13,-133.97 98.79 01/25/2020 22:39:51 79.14,-134.09 98.80 2.86 18
2 01/25/2020 23:30:30 -79.13, 33.26 81.22 01/25/2020 23:29:19 -79.10, 33.30 81.27 3.88 71
3 01/28/2020 04:12:51 -79.15, -37.38 81.77 01/28/2020 04:13:38 -79.16, -37.37 81.75 1.75 47
4 01/28/2020 05:03:54 79.14, 129.93 98.22 01/28/2020 05:03:05 79.13, 130.05 98.20 2.85 49
5 01/30/2020 09:46:15 79.18, 59.12 97.65 01/30/2020 09:47:25 79.15, 59.10 97.64 2.83 70
6 01/30/2020 10:37:12 -79.14,-133.35 82.38 01/30/2020 10:36:52 -79.16,-133.22 82.37 2.93 20
7 02/01/2020 16:10:35 79.16, -36.75 97.01 02/01/2020 16:10:39 79.14, -36.78 96.99 2.60 4
8 02/03/2020 21:43:54 -79.16, 60.00 83.63 02/03/2020 21:44:26 -79.17, 59.96 83.62 1.17 32
9 02/03/2020 22:34:55 79.15,-132.63 96.36 02/03/2020 22:33:53 79.12,-132.67 96.31 2.75 62
10 02/06/2020 03:17:16 79.19, 156.52 95.72 02/06/2020 03:18:12 79.18, 156.60 95.73 1.77 56




NCC Satellite Simultaneous Nadir Overpasses (SNOs) Prediction Service
